Hourly Data Report for May 08, 2012

All times are specified in Local Standard Time (LST). Add 1 hour to adjust for Daylight Saving Time where and when it is observed.

DEER LAKE A
NEWFOUNDLAND

49°12'33.000" N
57°23'40.000" W
21.90 m
8401502
71809
YDF

Download Data

Hourly Data (May 2012)
Hourly Data Report for May 8, 2012
Temp Definition
°C
Dew Point Temp Definition
°C
Rel Hum Definition
%
Wind Dir Definition
10's deg

Wind Spd Definition
km/h
Visibility Definition
km
Stn Press Definition
kPa
Hmdx Definition


Wind Chill Definition


Weather Definition


TIME
00:30 Legend Double Dagger 4.4 3.8 96 5 12 6.4 101.74     Rain Showers,Fog
01:30 Legend Double Dagger 4.1 3.7 97 5 13 4.8 101.75     Drizzle,Fog
02:30 Legend Double Dagger 3.9 3.5 97 5 11 4.8 101.76     Drizzle,Fog
03:30 Legend Double Dagger 3.8 3.4 97 7 8 4.8 101.76     Drizzle,Fog
04:30 Legend Double Dagger 3.8 3.2 96   0 4.8 101.78     Drizzle,Fog
05:30 Legend Double Dagger 4.0 3.3 95 5 4 9.7 101.82     Fog
06:30 Legend Double Dagger 4.4 3.5 94   0 9.7 101.84     Fog
07:30 Legend Double Dagger 5.5 4.5 93   0 9.7 101.88     Drizzle,Fog
08:30 Legend Double Dagger 7.1 5.3 88   0 10.0 101.87     Cloudy
09:30 Legend Double Dagger 9.4 6.7 83 20 8 10.0 101.86     Drizzle
10:30 Legend Double Dagger 10.5 6.7 77 23 11 10.0 101.87     Drizzle
11:30 Legend Double Dagger 11.9 6.2 68 24 5 10.0 101.82     Mostly Cloudy
12:30 Legend Double Dagger 13.0 7.1 67 17 7 10.0 101.78     LegendNANA
13:30 Legend Double Dagger 13.8 6.0 59 30 6 10.0 101.70     LegendNANA
14:30 Legend Double Dagger 15.2 4.4 48 25 5 10.0 101.66     Mostly Cloudy
15:30 Legend Double Dagger 14.8 4.0 48 19 11 10.0 101.62     LegendNANA
16:30 Legend Double Dagger 15.2 5.2 51 32 4 10.0 101.59     LegendNANA
17:30 Legend Double Dagger 14.6 5.2 53   0 10.0 101.57     Mostly Cloudy
18:30 Legend Double Dagger 13.3 5.5 59 26 15 10.0 101.63     LegendNANA
19:30 Legend Double Dagger 11.0 4.0 62 24 10 10.0 101.65     LegendNANA
20:30 Legend Double Dagger 9.1 3.7 69 29 6 10.0 101.66     Mostly Cloudy
21:30 Legend Double Dagger 7.2 2.3 71 21 7 10.0 101.70     LegendNANA
22:30 Legend Double Dagger 7.1 3.0 75 22 4 10.0 101.69     LegendNANA
23:30 Legend Double Dagger 6.4 2.5 76 20 6 10.0 101.68     Mostly Cloudy

Notes on Data Quality.

Legend

  • E = Estimated
  • M = Missing
  • NA = Not Available
  • ‡ = Partner data that is not subject to review by the National Climate Archives
Date modified: